[[{"header":{"parameterUnit":"m.s-1","parameterCategory":1,"la1":30.2991,"la2":30.254,"lo1":-89.0895,"lo2":-89.0444,"dy":0.0017,"dx":0.0017,"nx":28,"ny":28,"refTime":"2024-06-05T09:00:00:Z","depth":0,"parameterNumber":2,"parameterNumberName":"U-component_of_WINDS"},"data":[0,0,0,0,0,0,0,0,0,0,0,0,0,0,0,0,0,0,0,0,0,0,0,0,0,0,0,0,0,0,0,0,0,0,0,0,0,0,0,0,0,0,0,0,0,0,0,0,0,0,0,0,0,0,0,0,0,0,0.7284,0.7284,0,0.7272,0.7272,0.7272,0.7239,0.7238,0.7237,0.7237,0.7225,0.7225,0.7226,0,0,0,0,0,0,0,0,0,0,0,0,0,0.7279,0.728,0.7284,0.7284,0.7284,0.7272,0.7272,0.7272,0.7239,0.7238,0.7237,0.7236,0.7225,0.7225,0.7226,0,0,0,0,0,0,0,0,0,0,0,0,0,0.7276,0.728,0.7284,0.7266,0.7264,0.7272,0.7272,0.7272,0.7239,0.7238,0.7237,0.7236,0.7225,0.7225,0.7226,0.725,0,0,0.7227,0.7228,0,0,0,0,0,0,0,0,0.7276,0.7276,0.7269,0.7267,0.7265,0.7256,0.7266,0.7265,0.7239,0.7249,0.7237,0.7235,0.7236,0.7236,0.7236,0.725,0.7249,0.7227,0.7228,0.7228,0.7228,0,0,0,0,0,0,0,0.7276,0.7276,0.7279,0.7269,0.7267,0.7259,0.7257,0.7266,0.7249,0.7248,0.7245,0.7244,0.7235,0.7235,0.7235,0.7249,0.7227,0.7228,0.7228,0.7228,0.7284,0.7285,0,0,0,0,0,0,0.7279,0.7277,0.728,0.7279,0.7268,0.726,0.7258,0.726,0.7248,0.7246,0.7245,0.7243,0.7235,0.7235,0.7235,0.7263,0.7228,0.7228,0.7229,0.7283,0.7284,0.7285,0,0,0,0,0,0,0.7279,0.728,0.728,0.7277,0.7277,0.7261,0.7264,0.726,0.7261,0.7246,0.7243,0.7249,0.7234,0.7234,0.7247,0.7263,0.7229,0.7229,0.7281,0.7283,0.7285,0.7321,0,0,0,0,0,0,0.7279,0.728,0.7289,0.7278,0.7277,0.7292,0.7265,0.7261,0.7262,0.7258,0.7249,0.7246,0.7233,0.7246,0.7247,0.7263,0.723,0.728,0.7282,0.7284,0.7318,0.7324,0.7328,0,0,0,0,0,0.7279,0.73,0.729,0.729,0.7288,0.7293,0.7293,0.7277,0.7263,0.7272,0.7263,0.7247,0.7261,0.7248,0.7249,0.7265,0.7279,0.7281,0.7284,0.7316,0.7323,0.7328,0,0,0,0,0,0,0.7313,0.7298,0.7287,0.7304,0.73,0.7288,0.7299,0.7285,0.7285,0.7282,0.7263,0.7261,0.7277,0.7272,0.7258,0.7288,0.7267,0.727,0.7291,0.7297,0.7302,0.7303,0.723,0,0,0,0,0,0.7323,0.7328,0.7315,0.7331,0.733,0.7315,0.7317,0.7305,0.73,0.7299,0.7291,0.7287,0.7291,0.7293,0.7296,0.7317,0.7315,0.7328,0.7333,0.7338,0.7341,0.7352,0.7358,0.7294,0.7294,0.7294,0,0,0.7342,0.7335,0.7339,0.7338,0.7334,0.734,0.7314,0.7322,0.7327,0.73,0.7312,0.7306,0.7301,0.7318,0.7325,0.7314,0.7358,0.7341,0.7344,0.7345,0.7356,0.7362,0.7367,0.7295,0.7295,0.7295,0,0,0.7382,0.7376,0.739,0.7387,0.738,0.737,0.7374,0.7363,0.7358,0.737,0.735,0.7356,0.7362,0.736,0.7359,0.7398,0.7383,0.7399,0.7426,0.7438,0.7443,0.7447,0.7462,0.7467,0.7402,0.7402,0.7402,0,0.7407,0.7416,0.7399,0.7408,0.7409,0.7385,0.7399,0.7396,0.7391,0.7392,0.738,0.7388,0.7382,0.7399,0.7409,0.7409,0.7413,0.7401,0.7443,0.7448,0.7451,0.7465,0.7471,0.7404,0.7404,0.7404,0.7404,0,0.7448,0.7455,0.7467,0.7463,0.7464,0.7476,0.7461,0.7464,0.7452,0.7444,0.7456,0.7449,0.745,0.7453,0.7441,0.7468,0.7462,0.7447,0.7425,0.746,0.7473,0.7478,0.7407,0.7407,0.7406,0.7406,0,0,0.7509,0.7496,0.75,0.7499,0.749,0.7495,0.7506,0.7507,0.7511,0.7508,0.7517,0.7523,0.751,0.7509,0.7497,0.7507,0.754,0.7491,0.749,0.7501,0.757,0.7582,0.7588,0.7529,0.753,0.7531,0.7571,0,0.7547,0.7565,0.755,0.757,0.7577,0.7554,0.7564,0.756,0.7552,0.7557,0.7548,0.7553,0.7534,0.7533,0.7542,0.7534,0.7553,0.753,0.7538,0.7539,0.7541,0.7595,0.7608,0.7645,0.7575,0.7576,0.7577,0,0.7594,0.7594,0.7615,0.7606,0.7608,0.7617,0.7617,0.7621,0.7617,0.7611,0.761,0.7596,0.7606,0.7584,0.7599,0.7584,0.7586,0.7582,0.7583,0.7584,0.7561,0.7598,0.7657,0.7663,0.7584,0.7584,0.7583,0,0.7637,0.7642,0.7656,0.7655,0.7645,0.7652,0.7648,0.7642,0.7644,0.7644,0.7645,0.7646,0.7647,0.7648,0.7635,0.762,0.7651,0.7628,0.7647,0.7647,0.7655,0.7655,0.7716,0.7655,0.7655,0.7655,0.7655,0,0.7681,0.7696,0.7675,0.7684,0.77,0.7682,0.7698,0.7692,0.7687,0.7694,0.7675,0.7682,0.7663,0.7668,0.7657,0.7672,0.7672,0.7668,0.7665,0.767,0.7671,0.7672,0.7669,0.7656,0.7656,0.7656,0.7656,0,0.7733,0.7719,0.7733,0.7722,0.772,0.7732,0.7723,0.7731,0.7722,0.7731,0.7732,0.7718,0.7724,0.771,0.7713,0.7706,0.7727,0.7719,0.7729,0.7727,0.7747,0.7745,0.7811,0.7819,0.7752,0.7753,0.7754,0,0.7762,0.7773,0.7763,0.7767,0.7764,0.777,0.7772,0.7755,0.7758,0.7754,0.7762,0.7766,0.7768,0.7778,0.7768,0.7771,0.7764,0.7787,0.7764,0.7769,0.7765,0.7765,0.7767,0.7792,0.7792,0.7793,0.7794,0,0.7816,0.781,0.7813,0.7814,0.7817,0.7817,0.7816,0.782,0.7803,0.7807,0.7812,0.7814,0.7817,0.7822,0.7822,0.7818,0.7804,0.7801,0.7805,0.7811,0.7817,0.7815,0.7742,0.78,0.7799,0.7799,0.7798,0.7798,0.7858,0.7867,0.7862,0.7867,0.7864,0.7864,0.7871,0.7863,0.7867,0.7869,0.7859,0.7866,0.7862,0.7861,0.7859,0.7865,0.7855,0.7861,0.7863,0.7865,0.7869,0.7815,0.7865,0.7865,0.7865,0.7865,0.7864,0,0.7912,0.7908,0.7912,0.7912,0.7916,0.7901,0.7899,0.7904,0.7911,0.7908,0.7911,0.7918,0.7922,0.7913,0.7915,0.7922,0.7916,0.7924,0.7924,0.7923,0.7878,0.7874,0.7929,0.7929,0.7929,0.7929,0.7929,0.7929,0.7941,0.7955,0.7948,0.7961,0.7956,0.7964,0.7965,0.7964,0.7962,0.7971,0.7974,0.7968,0.7963,0.7966,0.7969,0.7966,0.7969,0.7979,0.7974,0.7932,0.7926,0.792,0.7917,0.798,0.798,0.8019,0.802,0.802]},{"header":{"parameterUnit":"m.s-1","parameterCategory":1,"la1":30.2991,"la2":30.254,"lo1":-89.0895,"lo2":-89.0444,"dy":0.0017,"dx":0.0017,"nx":28,"ny":28,"refTime":"2024-06-05T09:00:00:Z","depth":0,"parameterNumber":3,"parameterNumberName":"V-component_of_WINDS"},"data":[0,0,0,0,0,0,0,0,0,0,0,0,0,0,0,0,0,0,0,0,0,0,0,0,0,0,0,0,0,0,0,0,0,0,0,0,0,0,0,0,0,0,0,0,0,0,0,0,0,0,0,0,0,0,0,0,0,0,5.4567,5.4567,0,5.4567,5.4567,5.4567,5.4562,5.4562,5.4562,5.4562,5.4558,5.4558,5.4558,0,0,0,0,0,0,0,0,0,0,0,0,0,5.456,5.456,5.4567,5.4567,5.4567,5.4567,5.4567,5.4567,5.4562,5.4562,5.4562,5.4562,5.4558,5.4558,5.4558,0,0,0,0,0,0,0,0,0,0,0,0,0,5.4561,5.456,5.4567,5.4565,5.4564,5.4567,5.4567,5.4567,5.4562,5.4562,5.4562,5.4562,5.4558,5.4558,5.4558,5.456,0,0,5.4557,5.4557,0,0,0,0,0,0,0,0,5.4561,5.4562,5.4565,5.4565,5.4565,5.4564,5.4563,5.4564,5.4562,5.4563,5.4562,5.4562,5.456,5.4559,5.456,5.456,5.456,5.4557,5.4557,5.4557,5.4557,0,0,0,0,0,0,0,5.4561,5.4562,5.4566,5.4565,5.4565,5.4563,5.4563,5.4563,5.4562,5.4563,5.4563,5.4563,5.456,5.456,5.456,5.456,5.4557,5.4557,5.4557,5.4557,5.4565,5.4565,0,0,0,0,0,0,5.4562,5.4562,5.4566,5.4566,5.4563,5.4563,5.4563,5.4565,5.4562,5.4562,5.4563,5.4563,5.456,5.456,5.4559,5.4564,5.4557,5.4557,5.4557,5.4564,5.4565,5.4565,0,0,0,0,0,0,5.4562,5.4562,5.4566,5.4564,5.4564,5.4563,5.4565,5.4565,5.4565,5.4562,5.4562,5.4564,5.456,5.4559,5.4561,5.4563,5.4557,5.4557,5.4564,5.4564,5.4565,5.4572,0,0,0,0,0,0,5.4562,5.4562,5.4564,5.4564,5.4565,5.4569,5.4565,5.4565,5.4565,5.4565,5.4563,5.4562,5.456,5.4561,5.4561,5.4563,5.4557,5.4564,5.4564,5.4565,5.4571,5.4572,5.4573,0,0,0,0,0,5.4561,5.4564,5.4564,5.4565,5.4567,5.4569,5.4569,5.4568,5.4566,5.4567,5.4566,5.4562,5.4563,5.4561,5.4561,5.4563,5.4564,5.4564,5.4565,5.4571,5.4572,5.4573,0,0,0,0,0,0,5.4562,5.4564,5.4564,5.4567,5.4568,5.4568,5.457,5.4569,5.4569,5.4568,5.4565,5.4564,5.4567,5.4565,5.4563,5.4567,5.4563,5.4563,5.4568,5.4569,5.457,5.457,5.4557,0,0,0,0,0,5.4563,5.4566,5.4567,5.457,5.4571,5.4571,5.4571,5.457,5.4571,5.457,5.4569,5.4568,5.4569,5.4569,5.4569,5.4571,5.4571,5.4573,5.4574,5.4575,5.4575,5.4577,5.4579,5.4566,5.4566,5.4566,0,0,5.4564,5.4566,5.4568,5.4571,5.4571,5.4574,5.4571,5.4573,5.4574,5.457,5.4572,5.4571,5.457,5.4573,5.4574,5.4572,5.4579,5.4575,5.4576,5.4576,5.4578,5.4579,5.458,5.4567,5.4567,5.4567,0,0,5.4568,5.457,5.4573,5.4575,5.4577,5.4577,5.4578,5.4578,5.4578,5.4581,5.4578,5.458,5.458,5.458,5.458,5.4586,5.4584,5.4586,5.4591,5.4594,5.4594,5.4595,5.4598,5.4599,5.4587,5.4587,5.4587,0,5.4569,5.4574,5.4575,5.4578,5.458,5.4578,5.4582,5.4583,5.4584,5.4584,5.4582,5.4585,5.4583,5.4587,5.4589,5.4588,5.4589,5.4586,5.4595,5.4595,5.4596,5.4599,5.46,5.4587,5.4587,5.4587,5.4587,0,5.4575,5.4579,5.4581,5.4585,5.4587,5.459,5.4591,5.4592,5.4592,5.4592,5.4595,5.4594,5.4595,5.4596,5.4594,5.4599,5.4598,5.4595,5.4591,5.4598,5.46,5.4601,5.4588,5.4588,5.4588,5.4587,0,0,5.4578,5.4584,5.4585,5.4588,5.4591,5.4593,5.4596,5.4599,5.4601,5.4602,5.4605,5.4607,5.4605,5.4605,5.4604,5.4606,5.4613,5.4603,5.4603,5.4605,5.4619,5.4621,5.4622,5.4611,5.4611,5.4611,5.4619,0,5.4582,5.459,5.4592,5.4598,5.4602,5.4602,5.4605,5.4607,5.4607,5.461,5.461,5.4612,5.4609,5.4609,5.4612,5.4611,5.4615,5.4611,5.4613,5.4613,5.4613,5.4623,5.4625,5.4633,5.462,5.462,5.462,0,5.4588,5.4592,5.4599,5.4604,5.4606,5.4609,5.4612,5.4615,5.4617,5.4618,5.4619,5.4618,5.4622,5.4618,5.4623,5.462,5.4621,5.4621,5.4621,5.4621,5.4617,5.4624,5.4635,5.4636,5.4622,5.4622,5.4622,0,5.459,5.4597,5.4603,5.4605,5.461,5.4613,5.4615,5.4617,5.462,5.4622,5.4624,5.4626,5.4627,5.4629,5.4629,5.4626,5.4634,5.463,5.4634,5.4634,5.4635,5.4635,5.4646,5.4635,5.4635,5.4635,5.4635,0,5.4594,5.4599,5.4604,5.4608,5.4613,5.4615,5.462,5.4622,5.4625,5.4628,5.4628,5.4631,5.463,5.4633,5.4633,5.4637,5.4637,5.4637,5.4637,5.4637,5.4638,5.4638,5.4637,5.4636,5.4636,5.4636,5.4635,0,5.4597,5.4601,5.4607,5.4613,5.4615,5.4619,5.4623,5.4626,5.4628,5.4633,5.4634,5.4636,5.4639,5.464,5.4643,5.4643,5.4648,5.4647,5.4648,5.4648,5.4652,5.4652,5.4664,5.4666,5.4654,5.4654,5.4654,0,5.46,5.4604,5.4611,5.4614,5.4617,5.4622,5.4626,5.4628,5.4631,5.4636,5.4638,5.4643,5.4646,5.4652,5.4653,5.4656,5.4655,5.4659,5.4655,5.4656,5.4655,5.4655,5.4656,5.466,5.466,5.466,5.466,0,5.4604,5.4607,5.4612,5.4619,5.4623,5.4628,5.4632,5.4635,5.4638,5.4641,5.4647,5.4649,5.4655,5.4659,5.4662,5.4663,5.4662,5.4662,5.4663,5.4663,5.4663,5.4664,5.465,5.4661,5.4661,5.4661,5.4661,5.4661,5.4607,5.4611,5.4618,5.4624,5.4629,5.4634,5.4638,5.4641,5.4646,5.4652,5.4653,5.4658,5.4662,5.4667,5.4669,5.4672,5.4671,5.4672,5.4673,5.4673,5.4674,5.4663,5.4673,5.4673,5.4673,5.4673,5.4673,0,5.4612,5.4617,5.4623,5.4631,5.4636,5.4637,5.4643,5.4647,5.4653,5.4657,5.4661,5.4668,5.4672,5.4675,5.4679,5.4682,5.4682,5.4683,5.4683,5.4683,5.4675,5.4674,5.4683,5.4683,5.4683,5.4683,5.4683,5.4683,5.4615,5.4623,5.4627,5.4637,5.4641,5.4649,5.4652,5.4656,5.466,5.4668,5.4673,5.4676,5.4679,5.4684,5.4689,5.4689,5.4691,5.4693,5.4693,5.4685,5.4684,5.4683,5.4682,5.4693,5.4693,5.4701,5.4701,5.4701]}]]